Flag for Norway Weather past 2 weeks in Vestby, Norway

Now
10 °F

Cold.


Feels Like: 0 °F
Forecast: 8 / 15 °F
Wind: 7 mph from North

Location: Rygge

Current Time: Dec 28, 2014 at 4:07:08 AM

Latest Report: Dec 28, 2014 at 3:20 AM


Visibility: N/A

Pressure: 30.21 "Hg

Humidity: 85%

Dew point: 7 °F

Location of VestbyLocation

Historic Weather in Vestby — Graph

°F

Vestby temperature yesterday

Maximum temperature yesterday: 16 °F (at 12:20 AM)
Minimum temperature yesterday: 10 °F (at 6:20 AM)
Average temperature yesterday: 13 °F

Past Weeks' High & Low Weather Summary

 TemperatureHumidityPressure
High45 °F (Dec 14, 6:20 PM)100% (Dec 13, 2:20 AM)30.24 "Hg (Dec 13, 2:20 AM)
Low5 °F (Dec 26, 2:20 AM)56% (Dec 20, 9:20 PM)29.06 "Hg (Dec 13, 2:20 AM)
Average30 °F85%29.51 "Hg
* Reported Dec 13 2:20 AM — Dec 28 2:50 AM, Vestby, Weather by CustomWeather, © 2014

Note: Actual official high and low records may vary slightly from our data, if they occured in-between our weather recording intervals... More about our weather records

Advertising

Vestby weather history for previous 24 hours

 ConditionsComfort  
Time TempWeatherWind HumidityBarometerVisibility
2:50 AM
Dec 28
9 °FFrigid.3 mph92%30.21 "HgN/A
2:20 AM10 °FCold.5 mph85%30.18 "HgN/A
1:50 AM10 °FCold.5 mph85%30.18 "HgN/A
1:20 AM10 °FCold.5 mph85%30.18 "HgN/A
12:50 AM9 °FFrigid.5 mph92%30.18 "HgN/A
12:20 AM10 °FClear.5 mph85%30.18 "Hg10 mi
11:50 PM
Dec 27
10 °FClear.6 mph92%30.15 "Hg10 mi
11:20 PM10 °FClear.6 mph85%30.15 "Hg10 mi
10:50 PM10 °FClear.6 mph85%30.15 "Hg10 mi
10:20 PM10 °FClear.5 mph85%30.15 "Hg10 mi
9:50 PM10 °FClear.6 mph92%30.15 "Hg10 mi
9:20 PM10 °FClear.5 mph92%30.12 "Hg10 mi
8:50 PM10 °FClear.5 mph85%30.12 "Hg10 mi
8:20 PM10 °FClear.6 mph92%30.12 "Hg10 mi
7:50 PM10 °FClear.5 mph85%30.09 "Hg10 mi
7:20 PM10 °FClear.5 mph92%30.09 "Hg10 mi
6:50 PM12 °FClear.5 mph85%30.09 "Hg10 mi
6:20 PM10 °FClear.3 mph92%30.09 "Hg10 mi
5:50 PM12 °FClear.3 mph85%30.07 "Hg10 mi
5:20 PM12 °FClear.3 mph92%30.07 "Hg10 mi
4:50 PM14 °FClear.3 mph85%30.07 "Hg10 mi
4:20 PM14 °FClear.3 mph92%30.07 "Hg10 mi
3:50 PM14 °FClear.6 mph92%30.04 "Hg10 mi
3:20 PM14 °FSunny.5 mph92%30.04 "Hg10 mi
2:50 PM16 °FSunny.6 mph86%30.04 "Hg10 mi
2:20 PM16 °FSunny.6 mph86%30.04 "Hg10 mi
1:50 PM16 °FSunny.6 mph86%30.04 "Hg10 mi
1:20 PM16 °FSunny.7 mph86%30.04 "Hg10 mi
12:50 PM16 °FSunny.5 mph86%30.04 "Hg10 mi
12:20 PM16 °FPassing clouds.5 mph86%30.04 "HgN/A
11:50 AM16 °FSunny.6 mph86%30.04 "Hg10 mi
11:20 AM14 °FSunny.6 mph92%30.04 "Hg10 mi
10:50 AM14 °FPassing clouds.3 mph85%30.04 "HgN/A
10:20 AM14 °FPassing clouds.3 mph85%30.01 "HgN/A
9:50 AM12 °FPassing clouds.3 mph85%30.01 "HgN/A
9:20 AM10 °FSunny.3 mph92%30.01 "Hg10 mi
8:50 AM10 °FClear.3 mph92%30.01 "Hg10 mi
8:20 AM10 °FClear.3 mph92%29.98 "Hg10 mi
7:50 AM10 °FPassing clouds.3 mph85%29.98 "HgN/A
7:20 AM10 °FClear.3 mph92%29.98 "Hg10 mi
6:50 AM10 °FClear.2 mph92%29.98 "Hg10 mi
6:20 AM10 °FClear.3 mph92%29.98 "Hg10 mi
5:50 AM12 °FCold.5 mph85%29.98 "HgN/A
5:20 AM12 °FCold.3 mph85%29.98 "HgN/A
4:20 AM12 °FCold.3 mph92%30.01 "HgN/A
Weather by CustomWeather, © 2014

See weather overviewHow to use our weather pages